WUK76YB LEBL-EGGW

Flight info

Callsign WUK76YB
Flight time 1h 37m
Altitude 32000
Route NATPI DCT EVNAM/N0455F360 DCT TUPAR UN861 DIKRO UM185 TELTU
Aircraft A320/M-SDE3FGHIRWY/LB1

Departure

Time 2026-05-04 11:28
Airport Josep Tarradellas Barcelona-El Prat Airport (LEBL)

Arrival

Time 2026-05-04 13:05
Airport London Luton Airport (EGGW)
Time Latitude Longitude Altitude Speed Heading
2026-05-04 10:50 41.30062 2.07513 21 ft 0 kts 336°
2026-05-04 11:10 41.29999 2.07564 19 ft 0 kts 319°
2026-05-04 11:12 41.29999 2.07563 19 ft 0 kts 311°
2026-05-04 11:12 41.29997 2.07558 19 ft 1 kts 262°
2026-05-04 11:12 41.29986 2.07524 19 ft 7 kts 231°
2026-05-04 11:12 41.29960 2.07525 17 ft 5 kts 160°
2026-05-04 11:13 41.29913 2.07548 15 ft 10 kts 160°
2026-05-04 11:13 41.29855 2.07540 17 ft 9 kts 217°
2026-05-04 11:13 41.29823 2.07465 18 ft 10 kts 248°
2026-05-04 11:13 41.29791 2.07365 17 ft 15 kts 245°
2026-05-04 11:14 41.29744 2.07234 18 ft 16 kts 246°
2026-05-04 11:14 41.29697 2.07095 16 ft 17 kts 244°
2026-05-04 11:14 41.29646 2.06943 18 ft 19 kts 247°
2026-05-04 11:16 41.29270 2.06164 17 ft 10 kts 154°
2026-05-04 11:16 41.29181 2.06218 15 ft 16 kts 156°
2026-05-04 11:16 41.29077 2.06283 14 ft 11 kts 150°
2026-05-04 11:17 41.29044 2.06348 16 ft 8 kts 112°
2026-05-04 11:17 41.29033 2.06427 16 ft 11 kts 82°
2026-05-04 11:19 41.29335 2.07314 17 ft 22 kts 69°
2026-05-04 11:19 41.29400 2.07501 17 ft 23 kts 66°
2026-05-04 11:19 41.29467 2.07696 18 ft 24 kts 66°
2026-05-04 11:19 41.29537 2.07900 17 ft 25 kts 65°
2026-05-04 11:20 41.29599 2.08079 18 ft 15 kts 54°
2026-05-04 11:20 41.29633 2.08194 17 ft 11 kts 81°
2026-05-04 11:20 41.29570 2.08256 16 ft 13 kts 158°
2026-05-04 11:20 41.29487 2.08303 17 ft 13 kts 152°
2026-05-04 11:22 41.28866 2.08753 17 ft 9 kts 61°
2026-05-04 11:22 41.28899 2.08837 16 ft 12 kts 69°
2026-05-04 11:23 41.28937 2.08946 18 ft 14 kts 63°
2026-05-04 11:23 41.28982 2.09076 18 ft 17 kts 64°
2026-05-04 11:24 41.29308 2.09993 17 ft 12 kts 67°
2026-05-04 11:25 41.29344 2.10103 17 ft 15 kts 62°
2026-05-04 11:25 41.29361 2.10229 17 ft 14 kts 105°
2026-05-04 11:25 41.29323 2.10274 13 ft 0 kts 157°
2026-05-04 11:27 41.29106 2.09995 18 ft 60 kts 244°
2026-05-04 11:28 41.28837 2.09207 18 ft 123 kts 246°
2026-05-04 11:28 41.28398 2.07977 38 ft 168 kts 243°
2026-05-04 11:28 41.27866 2.06557 574 ft 169 kts 231°
2026-05-04 11:28 41.26895 2.05777 1117 ft 167 kts 192°
2026-05-04 11:29 41.25736 2.05481 1741 ft 173 kts 193°
2026-05-04 11:29 41.24500 2.05189 2194 ft 188 kts 192°
2026-05-04 11:29 41.23120 2.04866 2490 ft 214 kts 191°
2026-05-04 11:29 41.21640 2.04510 3276 ft 217 kts 192°
2026-05-04 11:31 41.13661 1.94997 9237 ft 238 kts 237°
2026-05-04 11:33 41.18542 1.81038 12253 ft 379 kts 343°
2026-05-04 11:33 41.21138 1.80239 12910 ft 385 kts 345°
2026-05-04 11:33 41.23777 1.79504 13609 ft 389 kts 345°
2026-05-04 11:34 41.26434 1.78725 14224 ft 393 kts 343°
2026-05-04 11:34 41.29102 1.77863 14845 ft 395 kts 342°
2026-05-04 11:34 41.31769 1.76927 15462 ft 398 kts 341°
2026-05-04 11:34 41.34444 1.75936 16082 ft 401 kts 340°
2026-05-04 11:35 41.37136 1.74913 16718 ft 404 kts 340°
2026-05-04 11:35 41.39843 1.73880 17369 ft 406 kts 339°
2026-05-04 11:35 41.42573 1.72843 18023 ft 410 kts 339°
2026-05-04 11:35 41.45328 1.71803 18616 ft 413 kts 339°
2026-05-04 11:36 41.48111 1.70761 19179 ft 418 kts 339°
2026-05-04 11:36 41.50928 1.69715 19695 ft 423 kts 339°
2026-05-04 11:36 41.53784 1.68652 20231 ft 428 kts 339°
2026-05-04 11:36 41.56664 1.67578 20782 ft 432 kts 339°
2026-05-04 11:37 41.59569 1.66496 21276 ft 436 kts 339°
2026-05-04 11:37 41.62502 1.65399 21743 ft 439 kts 339°
2026-05-04 11:37 41.65457 1.64292 22207 ft 443 kts 339°
2026-05-04 11:37 41.68441 1.63172 22659 ft 447 kts 339°
2026-05-04 11:38 41.71453 1.62047 23093 ft 451 kts 339°
2026-05-04 11:38 41.74454 1.60929 23502 ft 455 kts 338°
2026-05-04 11:38 41.77514 1.59786 23878 ft 458 kts 339°
2026-05-04 11:38 41.80586 1.58635 24252 ft 459 kts 338°
2026-05-04 11:39 41.83711 1.57458 24626 ft 461 kts 338°
2026-05-04 11:39 41.86766 1.56303 24985 ft 464 kts 338°
2026-05-04 11:40 42.05667 1.49155 27111 ft 477 kts 338°
2026-05-04 11:41 42.08868 1.47940 27434 ft 480 kts 338°
2026-05-04 11:41 42.12089 1.46715 27740 ft 482 kts 338°
2026-05-04 11:41 42.15323 1.45483 28079 ft 484 kts 338°
2026-05-04 11:41 42.18568 1.44247 28549 ft 483 kts 338°
2026-05-04 11:42 42.21805 1.43017 29088 ft 482 kts 338°
2026-05-04 11:42 42.25029 1.41792 29545 ft 481 kts 338°
2026-05-04 11:42 42.28250 1.40567 30013 ft 481 kts 338°
2026-05-04 11:42 42.31463 1.39340 30421 ft 480 kts 337°
2026-05-04 11:43 42.34685 1.38105 30813 ft 480 kts 337°
2026-05-04 11:43 42.37905 1.36868 31158 ft 481 kts 337°
2026-05-04 11:43 42.41079 1.35650 31589 ft 480 kts 337°
2026-05-04 11:43 42.44303 1.34413 31895 ft 481 kts 337°
2026-05-04 11:44 42.47528 1.33179 31965 ft 482 kts 337°
2026-05-04 11:44 42.54004 1.30684 31965 ft 484 kts 337°
2026-05-04 11:45 42.60492 1.28185 31966 ft 485 kts 337°
2026-05-04 11:45 42.66984 1.25680 31963 ft 485 kts 337°
2026-05-04 11:46 42.73508 1.23446 31942 ft 491 kts 346°
2026-05-04 11:46 42.80344 1.22477 31950 ft 494 kts 348°
2026-05-04 11:47 42.87185 1.21554 31946 ft 495 kts 348°
2026-05-04 11:47 42.94046 1.20610 31947 ft 495 kts 348°
2026-05-04 11:48 43.00903 1.19664 31951 ft 495 kts 348°
2026-05-04 11:48 43.07761 1.18712 31961 ft 494 kts 348°
2026-05-04 11:49 43.14613 1.17763 31957 ft 494 kts 348°
2026-05-04 11:49 43.21446 1.16814 31951 ft 494 kts 348°
2026-05-04 11:50 43.28245 1.15867 31958 ft 494 kts 348°
2026-05-04 11:50 43.35079 1.14918 31954 ft 493 kts 348°
2026-05-04 11:51 43.41923 1.13970 31973 ft 494 kts 348°
2026-05-04 11:51 43.48760 1.13017 31972 ft 494 kts 349°
2026-05-04 11:52 43.55598 1.12059 31963 ft 494 kts 349°
2026-05-04 11:52 43.62236 1.10199 31953 ft 482 kts 334°
2026-05-04 11:53 43.68375 1.06614 31961 ft 478 kts 330°
2026-05-04 11:53 43.74486 1.02960 31960 ft 479 kts 330°
2026-05-04 11:55 43.98940 0.88260 31945 ft 479 kts 331°
2026-05-04 11:56 44.05010 0.84574 31952 ft 480 kts 331°
2026-05-04 11:56 44.11128 0.80861 31945 ft 480 kts 331°
2026-05-04 11:57 44.17257 0.77148 31941 ft 480 kts 331°
2026-05-04 11:57 44.23390 0.73410 31959 ft 481 kts 331°
2026-05-04 11:58 44.29533 0.69647 31943 ft 482 kts 331°
2026-05-04 11:58 44.35684 0.65887 31935 ft 483 kts 331°
2026-05-04 11:59 44.41836 0.62114 31929 ft 483 kts 331°
2026-05-04 11:59 44.47991 0.58339 31936 ft 483 kts 332°
2026-05-04 12:00 44.54152 0.54542 31935 ft 484 kts 332°
2026-05-04 12:00 44.60314 0.50740 31940 ft 484 kts 332°
2026-05-04 12:01 44.66471 0.46933 31950 ft 484 kts 332°
2026-05-04 12:02 44.88009 0.33519 31974 ft 483 kts 332°
2026-05-04 12:03 44.93111 0.30316 31962 ft 483 kts 332°
2026-05-04 12:03 45.00256 0.25842 31946 ft 483 kts 332°
2026-05-04 12:04 45.06398 0.21992 31941 ft 483 kts 332°
2026-05-04 12:04 45.12535 0.18119 31939 ft 483 kts 332°
2026-05-04 12:05 45.17680 0.14862 31941 ft 483 kts 332°
2026-05-04 12:05 45.23764 0.11008 31950 ft 483 kts 332°
2026-05-04 12:06 45.29900 0.07123 31947 ft 483 kts 332°
2026-05-04 12:06 45.36039 0.03233 31943 ft 483 kts 332°
2026-05-04 12:07 45.42177 -0.00668 31966 ft 483 kts 332°
2026-05-04 12:07 45.48222 -0.04535 31968 ft 482 kts 332°
2026-05-04 12:08 45.54299 -0.08446 31963 ft 482 kts 332°
2026-05-04 12:08 45.60423 -0.12375 31964 ft 482 kts 332°
2026-05-04 12:09 45.66549 -0.16308 31957 ft 483 kts 332°
2026-05-04 12:09 45.72661 -0.20253 31953 ft 482 kts 332°
2026-05-04 12:10 45.78779 -0.24221 31950 ft 482 kts 332°
2026-05-04 12:10 45.84892 -0.28187 31949 ft 483 kts 332°
2026-05-04 12:11 45.91014 -0.32161 31961 ft 483 kts 332°
2026-05-04 12:11 45.97133 -0.36146 31964 ft 483 kts 332°
2026-05-04 12:12 46.03249 -0.40135 31964 ft 483 kts 333°
2026-05-04 12:12 46.09367 -0.44134 31963 ft 482 kts 333°
2026-05-04 12:14 46.33808 -0.60234 31969 ft 483 kts 332°
2026-05-04 12:15 46.39919 -0.64269 31974 ft 483 kts 334°
2026-05-04 12:15 46.46416 -0.66863 31971 ft 488 kts 351°
2026-05-04 12:16 46.53118 -0.67985 31972 ft 488 kts 352°
2026-05-04 12:16 46.59852 -0.69119 31977 ft 488 kts 352°
2026-05-04 12:17 46.66613 -0.70254 31972 ft 488 kts 352°
2026-05-04 12:17 46.73363 -0.71391 31971 ft 488 kts 352°
2026-05-04 12:18 46.80131 -0.72526 31971 ft 488 kts 352°
2026-05-04 12:18 46.86878 -0.73672 31972 ft 488 kts 352°
2026-05-04 12:19 46.93631 -0.74838 31976 ft 488 kts 352°
2026-05-04 12:19 47.00382 -0.75998 31977 ft 488 kts 352°
2026-05-04 12:20 47.07136 -0.77142 31974 ft 489 kts 352°
2026-05-04 12:20 47.13892 -0.78284 31974 ft 489 kts 352°
2026-05-04 12:21 47.20602 -0.79438 31977 ft 489 kts 351°
2026-05-04 12:21 47.27356 -0.80617 31967 ft 489 kts 351°
2026-05-04 12:22 47.34118 -0.81789 31971 ft 489 kts 351°
2026-05-04 12:22 47.40873 -0.82961 31971 ft 489 kts 351°
2026-05-04 12:23 47.47642 -0.84137 31983 ft 489 kts 352°
2026-05-04 12:23 47.54397 -0.85307 31982 ft 489 kts 352°
2026-05-04 12:24 47.61179 -0.86246 31983 ft 489 kts 354°
2026-05-04 12:24 47.67968 -0.86976 31981 ft 489 kts 354°
2026-05-04 12:25 47.74758 -0.87716 31968 ft 489 kts 354°
2026-05-04 12:25 47.81492 -0.88534 31979 ft 489 kts 354°
2026-05-04 12:26 47.88278 -0.89396 31984 ft 488 kts 354°
2026-05-04 12:26 47.95048 -0.90252 31982 ft 488 kts 354°
2026-05-04 12:27 48.01822 -0.91087 31979 ft 488 kts 354°
2026-05-04 12:27 48.08587 -0.91920 31980 ft 488 kts 354°
2026-05-04 12:28 48.15354 -0.92758 31980 ft 488 kts 354°
2026-05-04 12:28 48.22117 -0.93602 31982 ft 487 kts 354°
2026-05-04 12:29 48.28876 -0.94453 31982 ft 487 kts 354°
2026-05-04 12:29 48.35634 -0.95302 31981 ft 487 kts 354°
2026-05-04 12:30 48.42394 -0.96139 31980 ft 487 kts 354°
2026-05-04 12:30 48.49155 -0.96981 31985 ft 487 kts 354°
2026-05-04 12:31 48.55868 -0.97833 31985 ft 487 kts 354°
2026-05-04 12:31 48.62619 -0.98698 31988 ft 487 kts 354°
2026-05-04 12:32 48.72749 -0.99985 31993 ft 487 kts 354°
2026-05-04 12:33 48.79507 -1.00845 31994 ft 487 kts 354°
2026-05-04 12:33 48.86263 -1.01695 31998 ft 487 kts 354°
2026-05-04 12:34 48.93006 -1.02561 32004 ft 487 kts 354°
2026-05-04 12:34 48.99761 -1.03436 32004 ft 487 kts 354°
2026-05-04 12:35 49.06528 -1.03226 32002 ft 487 kts
2026-05-04 12:35 49.13268 -1.02062 32006 ft 488 kts
2026-05-04 12:36 49.20006 -1.00844 32006 ft 488 kts
2026-05-04 12:36 49.26714 -0.99635 32010 ft 488 kts
2026-05-04 12:37 49.33451 -0.98429 32010 ft 488 kts
2026-05-04 12:37 49.40200 -0.97223 32014 ft 488 kts
2026-05-04 12:38 49.46963 -0.96025 32015 ft 488 kts
2026-05-04 12:38 49.53708 -0.94815 32019 ft 488 kts
2026-05-04 12:39 49.60453 -0.93599 32020 ft 488 kts
2026-05-04 12:39 49.67205 -0.92438 32020 ft 488 kts
2026-05-04 12:40 49.73972 -0.91301 32020 ft 489 kts
2026-05-04 12:40 49.80733 -0.90186 32004 ft 488 kts
2026-05-04 12:41 49.87451 -0.89159 32027 ft 487 kts
2026-05-04 12:41 49.94187 -0.88136 32028 ft 487 kts
2026-05-04 12:42 50.00922 -0.87088 31773 ft 483 kts
2026-05-04 12:42 50.04269 -0.86584 30868 ft 485 kts
2026-05-04 12:42 50.07638 -0.86101 30016 ft 486 kts
2026-05-04 12:42 50.10954 -0.85640 29804 ft 471 kts
2026-05-04 12:43 50.14183 -0.85189 29345 ft 463 kts
2026-05-04 12:43 50.17376 -0.84741 28793 ft 457 kts
2026-05-04 12:43 50.20525 -0.84292 28226 ft 452 kts
2026-05-04 12:43 50.23645 -0.83848 27697 ft 447 kts
2026-05-04 12:44 50.26731 -0.83403 27151 ft 443 kts
2026-05-04 12:44 50.29787 -0.82958 26615 ft 439 kts
2026-05-04 12:44 50.32810 -0.82518 26099 ft 435 kts
2026-05-04 12:44 50.35815 -0.82083 25604 ft 432 kts
2026-05-04 12:45 50.38793 -0.81649 25125 ft 428 kts
2026-05-04 12:45 50.41752 -0.81221 24663 ft 425 kts
2026-05-04 12:45 50.44684 -0.80801 24247 ft 421 kts
2026-05-04 12:45 50.47580 -0.80385 23837 ft 417 kts
2026-05-04 12:46 50.50469 -0.79969 23397 ft 414 kts
2026-05-04 12:46 50.53336 -0.79556 22928 ft 411 kts
2026-05-04 12:46 50.56172 -0.79149 22467 ft 408 kts
2026-05-04 12:46 50.58985 -0.78736 22007 ft 404 kts
2026-05-04 12:47 50.61772 -0.78323 21545 ft 401 kts
2026-05-04 12:47 50.64500 -0.77919 21083 ft 398 kts
2026-05-04 12:47 50.67243 -0.77511 20639 ft 394 kts
2026-05-04 12:47 50.69956 -0.77111 20170 ft 390 kts
2026-05-04 12:48 50.72659 -0.76717 19692 ft 387 kts
2026-05-04 12:48 50.75324 -0.76331 19220 ft 384 kts
2026-05-04 12:48 50.77978 -0.75949 19009 ft 383 kts
2026-05-04 12:48 50.80622 -0.75417 19013 ft 383 kts 12°
2026-05-04 12:49 50.83178 -0.74295 18657 ft 380 kts 17°
2026-05-04 12:49 50.85777 -0.73634 18155 ft 378 kts
2026-05-04 12:49 50.88390 -0.73392 17626 ft 375 kts
2026-05-04 12:49 50.90982 -0.73168 17111 ft 372 kts
2026-05-04 12:50 50.93534 -0.72943 16888 ft 361 kts
2026-05-04 12:50 50.95986 -0.72724 16708 ft 342 kts
2026-05-04 12:50 50.98322 -0.72513 16282 ft 334 kts
2026-05-04 12:50 51.00624 -0.72299 15999 ft 329 kts
2026-05-04 12:51 51.02902 -0.72083 15697 ft 327 kts
2026-05-04 12:51 51.05163 -0.71866 15386 ft 325 kts
2026-05-04 12:51 51.07411 -0.71646 15055 ft 323 kts
2026-05-04 12:51 51.09650 -0.71421 14714 ft 321 kts
2026-05-04 12:52 51.11868 -0.71194 14384 ft 319 kts
2026-05-04 12:52 51.14045 -0.70968 14051 ft 317 kts
2026-05-04 12:52 51.15529 -0.70810 13822 ft 316 kts
2026-05-04 12:52 51.18420 -0.70550 13335 ft 313 kts
2026-05-04 12:53 51.20590 -0.70427 12971 ft 311 kts
2026-05-04 12:53 51.22748 -0.70312 12626 ft 309 kts
2026-05-04 12:53 51.24894 -0.70198 12319 ft 308 kts
2026-05-04 12:53 51.27029 -0.70086 12029 ft 306 kts
2026-05-04 12:54 51.28467 -0.70012 11826 ft 305 kts
2026-05-04 12:54 51.30580 -0.69905 11502 ft 303 kts
2026-05-04 12:54 51.32682 -0.69798 11175 ft 301 kts
2026-05-04 12:54 51.34776 -0.69685 10836 ft 300 kts
2026-05-04 12:55 51.36851 -0.69549 10504 ft 298 kts
2026-05-04 12:55 51.38921 -0.69409 10177 ft 297 kts
2026-05-04 12:55 51.40974 -0.69268 9844 ft 295 kts
2026-05-04 12:55 51.42992 -0.69130 9494 ft 293 kts
2026-05-04 12:56 51.45052 -0.68993 9166 ft 292 kts
2026-05-04 12:56 51.47051 -0.68866 8836 ft 290 kts
2026-05-04 12:56 51.49066 -0.68741 8505 ft 288 kts
2026-05-04 12:56 51.51064 -0.68618 8179 ft 287 kts
2026-05-04 12:57 51.53049 -0.68422 7847 ft 285 kts
2026-05-04 12:57 51.55003 -0.68201 7705 ft 277 kts
2026-05-04 12:57 51.56891 -0.67983 7577 ft 268 kts
2026-05-04 12:57 51.58726 -0.67760 7450 ft 260 kts
2026-05-04 12:58 51.60501 -0.67530 7318 ft 253 kts
2026-05-04 12:58 51.62242 -0.67304 7070 ft 250 kts
2026-05-04 12:58 51.63975 -0.67075 6781 ft 249 kts
2026-05-04 12:58 51.65705 -0.66848 6558 ft 248 kts
2026-05-04 12:59 51.67418 -0.66633 6315 ft 245 kts
2026-05-04 12:59 51.69104 -0.66424 5827 ft 243 kts
2026-05-04 12:59 51.70804 -0.66211 5469 ft 244 kts
2026-05-04 12:59 51.72481 -0.66028 5093 ft 240 kts
2026-05-04 13:00 51.74094 -0.66436 4822 ft 237 kts 346°
2026-05-04 13:00 51.75734 -0.66915 4521 ft 236 kts 350°
2026-05-04 13:00 51.77344 -0.67105 4195 ft 235 kts 359°
2026-05-04 13:00 51.78970 -0.67074 3860 ft 232 kts
2026-05-04 13:01 51.80527 -0.66494 3561 ft 227 kts 25°
2026-05-04 13:01 51.81805 -0.65159 3432 ft 212 kts 43°
2026-05-04 13:01 51.82692 -0.63381 3302 ft 198 kts 60°
2026-05-04 13:01 51.83195 -0.61339 3003 ft 195 kts 74°
2026-05-04 13:02 51.83564 -0.59225 2657 ft 194 kts 73°
2026-05-04 13:02 51.83931 -0.57128 2352 ft 192 kts 73°
2026-05-04 13:02 51.84299 -0.55026 2018 ft 195 kts 72°
2026-05-04 13:02 51.84666 -0.52927 2002 ft 186 kts 72°
2026-05-04 13:03 51.84986 -0.51089 2002 ft 154 kts 72°
2026-05-04 13:03 51.85263 -0.49500 1934 ft 142 kts 73°
2026-05-04 13:03 51.85526 -0.47998 1794 ft 137 kts 72°
2026-05-04 13:03 51.85783 -0.46523 1620 ft 135 kts 72°
2026-05-04 13:04 51.86040 -0.45050 1444 ft 136 kts 72°
2026-05-04 13:04 51.86294 -0.43589 1245 ft 134 kts 72°
2026-05-04 13:04 51.86545 -0.42142 1063 ft 132 kts 70°
2026-05-04 13:04 51.86798 -0.40721 859 ft 132 kts 70°
2026-05-04 13:05 51.87047 -0.39303 684 ft 131 kts 71°
2026-05-04 13:05 51.87281 -0.37903 527 ft 124 kts 72°
2026-05-04 13:05 51.87472 -0.36778 524 ft 74 kts 75°
2026-05-04 13:05 51.87559 -0.36285 521 ft 38 kts 74°
2026-05-04 13:06 51.87608 -0.35997 516 ft 13 kts 72°
2026-05-04 13:06 51.87661 -0.35922 516 ft 12 kts
2026-05-04 13:06 51.87751 -0.35971 516 ft 16 kts 336°
2026-05-04 13:06 51.87776 -0.36122 518 ft 16 kts 256°
2026-05-04 13:07 51.87744 -0.36314 519 ft 20 kts 252°
2026-05-04 13:07 51.87705 -0.36537 520 ft 22 kts 253°
2026-05-04 13:07 51.87666 -0.36779 524 ft 23 kts 253°
2026-05-04 13:07 51.87620 -0.37047 522 ft 27 kts 251°
2026-05-04 13:08 51.87574 -0.37314 522 ft 21 kts 263°
2026-05-04 13:08 51.87543 -0.37465 521 ft 14 kts 209°
2026-05-04 13:08 51.87512 -0.37518 522 ft 0 kts 241°
2026-05-04 13:08 51.87481 -0.37530 521 ft 7 kts 157°
2026-05-04 13:09 51.87484 -0.37509 521 ft 2 kts 34°
2026-05-04 13:09 51.87554 -0.37464 522 ft 16 kts 15°
2026-05-04 13:09 51.87664 -0.37493 522 ft 19 kts 322°
2026-05-04 13:09 51.87737 -0.37695 522 ft 22 kts 293°
2026-05-04 13:10 51.87793 -0.37889 523 ft 20 kts 299°
2026-05-04 13:10 51.87883 -0.38012 523 ft 12 kts 346°
2026-05-04 13:10 51.87964 -0.37995 523 ft 10 kts 26°
2026-05-04 13:10 51.88010 -0.37943 523 ft 6 kts 40°
2026-05-04 13:11 51.88002 -0.37899 523 ft 5 kts 119°
2026-05-04 13:11 51.87990 -0.37872 523 ft 2 kts 129°
2026-05-04 13:11 51.87986 -0.37863 523 ft 0 kts 125°